Torna al catalogo

SL-12 DEB

LostHEO
NORAD 44540·DEBRIS·🇷🇺 Russia

Lanciato Sep 2, 2010 da Baikonur Cosmodrome

Loading…

Prossimi Passaggi (prossime 24 ore)

TLE

ObsoletoSource: Space-Track

Epoca: Apr 29, 2022, 18:06 UTC

1 44540U 10041X   22119.75455721  .00027365  00000-0  94522-2 0  9991
2 44540  64.5894 292.5535 5843739  10.2753 357.7818  4.24139782 70537

Traccia SL-12 DEB in tempo reale con AllMySat

Download on the App Store